Location: Napa Junction
(38.1874°N, 122.2508°W)
Time: 15:27:28
(UTC+00:00)

Cosmos 2237 - Pass Details

Date: 08 September 2024
Orbit: 848 x 853 km, 70.8° (Epoch: 07 October)

Event Time Altitude Azimuth Distance (km) Brightness Sun altitude
Rises 12:01:31 0° 334° (NNW) 3,418 7.4 -20.4°
Reaches altitude 10° 12:03:59 10° 332° (NNW) 2,478 6.6 -19.9°
Maximum altitude 12:09:37 66° 251° (WSW) 922 4.1 -18.9°
Drops below altitude 10° 12:15:13 10° 170° (S) 2,462 6.5 -17.9°
Sets 12:17:40 0° 167° (SSE) 3,393 7.3 -17.4°
